| time (UTC) | temp F | wind direction | speed knots | gust knots | rain 1hr in | rain 24hr in | rain mn in | humidity % | barometer mb |
| 20260504050405 | 59 | 319 | 0.9 | 2.6 | 0.00 | 0.00 | 0.00 | 82 | 1012.8 |
| 20260504044404 | 60 | 309 | 1.7 | 2.6 | 0.00 | 0.00 | 0.00 | 82 | 1012.6 |
| 20260504043905 | 60 | 310 | 0.9 | 2.6 | 0.00 | 0.00 | 0.00 | 81 | 1012.6 |
| 20260504041404 | 60 | 304 | 1.7 | 2.6 | 0.00 | 0.00 | 0.00 | 80 | 1012.6 |
| 20260504040404 | 60 | 287 | 0.9 | 2.6 | 0.00 | 0.00 | 0.00 | 80 | 1012.5 |
| 20260504033404 | 60 | 278 | 2.6 | 5.2 | 0.00 | 0.00 | 0.00 | 81 | 1012.7 |
| 20260504031405 | 60 | 267 | 0.0 | 1.7 | 0.00 | 0.00 | 0.00 | 80 | 1012.8 |
| 20260504030905 | 60 | 257 | 1.7 | 2.6 | 0.00 | 0.00 | 0.00 | 80 | 1012.8 |
| 20260504030405 | 60 | 253 | 2.6 | 5.2 | 0.00 | 0.00 | 0.00 | 80 | 1012.9 |
| 20260504024404 | 60 | 299 | 2.6 | 4.3 | 0.00 | 0.00 | 0.00 | 80 | 1012.9 |
| 20260504021404 | 60 | 313 | 1.7 | 1.7 | 0.00 | 0.00 | 0.00 | 79 | 1012.9 |
| 20260504020404 | 60 | 128 | 0.0 | 1.7 | 0.00 | 0.00 | 0.00 | 78 | 1012.9 |
| 20260504014404 | 61 | 146 | 0.0 | 1.7 | 0.00 | 0.00 | 0.00 | 79 | 1013.0 |
| 20260504013405 | 61 | 249 | 0.9 | 2.6 | 0.00 | 0.00 | 0.00 | 78 | 1013.0 |
| 20260504011404 | 61 | 301 | 0.9 | 1.7 | 0.00 | 0.00 | 0.00 | 75 | 1013.2 |
| 20260504010404 | 61 | 317 | 1.7 | 2.6 | 0.00 | 0.00 | 0.00 | 76 | 1013.3 |
| 20260504004904 | 61 | 339 | 0.0 | 1.7 | 0.00 | 0.00 | 0.00 | 79 | 1013.4 |
| 20260504004405 | 61 | 24 | 0.0 | 0.9 | 0.00 | 0.00 | 0.00 | 80 | 1013.4 |
| 20260504003404 | 61 | 24 | 0.9 | 2.6 | 0.00 | 0.00 | 0.00 | 78 | 1013.4 |
| 20260503234905 | 61 | 266 | 2.6 | 2.6 | 0.00 | 0.00 | 0.00 | 84 | 1013.6 |
| 20260503234404 | 61 | 262 | 1.7 | 2.6 | 0.00 | 0.00 | 0.00 | 85 | 1013.7 |
| 20260503233404 | 61 | 247 | 1.7 | 2.6 | 0.00 | 0.00 | 0.00 | 85 | 1013.8 |
| 20260503231905 | 61 | 293 | 0.0 | 1.7 | 0.00 | 0.00 | 0.00 | 85 | 1014.0 |
| 20260503230904 | 61 | 52 | 0.0 | 0.9 | 0.00 | 0.00 | 0.00 | 86 | 1014.0 |
| 20260503224404 | 61 | 131 | 0.0 | 0.0 | 0.00 | 0.00 | 0.00 | 85 | 1014.0 |
| 20260503223904 | 61 | 145 | 0.0 | 1.7 | 0.00 | 0.00 | 0.00 | 85 | 1014.0 |
| 20260503221404 | 62 | 102 | 0.0 | 0.9 | 0.00 | 0.00 | 0.00 | 83 | 1013.9 |
| 20260503220904 | 62 | 102 | 0.9 | 1.7 | 0.00 | 0.00 | 0.00 | 82 | 1014.0 |
| 20260503220404 | 63 | 206 | 0.9 | 1.7 | 0.00 | 0.00 | 0.00 | 81 | 1014.0 |
| 20260503214904 | 63 | 213 | 0.9 | 2.6 | 0.00 | 0.00 | 0.00 | 81 | 1014.1 |
| 20260503214404 | 63 | 232 | 1.7 | 2.6 | 0.00 | 0.00 | 0.00 | 81 | 1014.0 |
| 20260503213905 | 63 | 105 | 1.7 | 1.7 | 0.00 | 0.00 | 0.00 | 82 | 1014.0 |
| 20260503213404 | 63 | 105 | 1.7 | 2.6 | 0.00 | 0.00 | 0.00 | 82 | 1013.9 |
| 20260503211404 | 63 | 114 | 2.6 | 2.6 | 0.00 | 0.00 | 0.00 | 80 | 1013.9 |
| 20260503210905 | 64 | 101 | 0.0 | 2.6 | 0.00 | 0.00 | 0.00 | 79 | 1013.8 |
| 20260503204904 | 64 | 65 | 0.0 | 0.0 | 0.00 | 0.00 | 0.00 | 80 | 1013.7 |
| 20260503190904 | 67 | 216 | 1.7 | 2.6 | 0.00 | 0.00 | 0.00 | 73 | 1012.8 |
| 20260503190404 | 67 | 221 | 2.6 | 2.6 | 0.00 | 0.00 | 0.00 | 73 | 1012.7 |
| 20260503181904 | 67 | 111 | 5.2 | 6.1 | 0.00 | 0.00 | 0.00 | 73 | 1012.5 |
| 20260503180404 | 68 | 101 | 3.5 | 10.4 | 0.00 | 0.00 | 0.00 | 72 | 1012.7 |
| 20260503174904 | 68 | 92 | 7.8 | 8.7 | 0.00 | 0.00 | 0.00 | 70 | 1012.8 |
| 20260503173904 | 68 | 60 | 5.2 | 7.8 | 0.00 | 0.00 | 0.00 | 70 | 1012.8 |
| 20260503171404 | 69 | 107 | 5.2 | 7.8 | 0.00 | 0.00 | 0.00 | 68 | 1012.9 |
| 20260503170404 | 69 | 101 | 4.3 | 7.8 | 0.00 | 0.00 | 0.00 | 70 | 1013.1 |
| 20260503150904 | 69 | 18 | 1.7 | 10.4 | 0.00 | 0.00 | 0.00 | 71 | 1013.4 |
| 20260503150404 | 69 | 140 | 5.2 | 15.6 | 0.00 | 0.00 | 0.00 | 70 | 1013.5 |
| 20260503131404 | 69 | 128 | 7.8 | 17.4 | 0.00 | 0.00 | 0.00 | 72 | 1014.6 |
| 20260503130404 | 68 | 109 | 10.4 | 20.0 | 0.00 | 0.00 | 0.00 | 73 | 1014.7 |
| 20260503090404 | 65 | 182 | 1.7 | 6.1 | 0.00 | 0.00 | 0.00 | 83 | 1016.0 |
| 20260503071904 | 63 | 125 | 0.0 | 0.9 | 0.00 | 0.00 | 0.00 | 87 | 1015.6 |
| 20260503071404 | 62 | 125 | 0.9 | 2.6 | 0.00 | 0.00 | 0.00 | 87 | 1015.5 |
| 20260503054404 | 62 | 276 | 2.6 | 5.2 | 0.00 | 0.00 | 0.00 | 88 | 1014.8 |
| 20260503053904 | 62 | 259 | 2.6 | 6.1 | 0.00 | 0.00 | 0.00 | 88 | 1014.8 |